Flag for U.S.A. Weather past 2 weeks in Angels Camp, California, U.S.A.

Now
68 °F

Clear.


Feels Like: 68 °F
Forecast: 54 / 94 °F
Wind: 9 mph from North

Location: Modesto City-County-Sham Field

Current Time: May 30, 2015 at 12:35:59 AM

Latest Report: May 29, 2015 at 11:53 PM


Visibility: 10 mi

Pressure: 29.87 "Hg

Humidity: 49%

Dew point: 48 °F

Location of Angels CampLocation

Historic Weather in Angels Camp — Graph

°F

Angels Camp temperature yesterday

Maximum temperature yesterday: 90 °F (at 3:53 PM)
Minimum temperature yesterday: 57 °F (at 5:53 AM)
Average temperature yesterday: 74 °F

Past Weeks' High & Low Weather Summary

 TemperatureHumidityPressure
High90 °F (May 29, 3:53 PM)90% (May 16, 5:53 AM)30.08 "Hg (May 16, 5:53 AM)
Low49 °F (May 16, 5:53 AM)19% (May 29, 5:53 PM)29.82 "Hg (May 29, 6:53 PM)
Average66 °F54%29.94 "Hg
* Reported May 14 10:53 PM — May 29 10:53 PM, Angels Camp, Weather by CustomWeather, © 2015

Note: Actual official high and low records may vary slightly from our data, if they occured in-between our weather recording intervals... More about our weather records

Advertising

Angels Camp weather history for previous 24 hours

 ConditionsComfort  
Time TempWeatherWind HumidityBarometerVisibility
10:53 PM
Fri, May 29
71 °FClear.7 mph44%29.87 "Hg10 mi
9:53 PM76 °FClear.8 mph33%29.86 "Hg10 mi
8:53 PM78 °FSunny.7 mph32%29.84 "Hg10 mi
7:53 PM83 °FSunny.12 mph28%29.84 "Hg10 mi
6:53 PM88 °FSunny.10 mph23%29.82 "Hg10 mi
5:53 PM90 °FSunny.9 mph19%29.83 "Hg10 mi
4:53 PM90 °FSunny.9 mph22%29.83 "Hg10 mi
3:53 PM90 °FSunny.7 mph23%29.85 "Hg10 mi
2:53 PM89 °FSunny.5 mph22%29.86 "Hg10 mi
1:53 PM88 °FSunny.7 mph23%29.88 "Hg10 mi
12:53 PM85 °FSunny.5 mph25%29.90 "Hg10 mi
11:53 AM80 °FSunny.No wind32%29.92 "Hg10 mi
10:53 AM77 °FSunny.3 mph35%29.93 "Hg10 mi
9:53 AM72 °FSunny.5 mph41%29.93 "Hg10 mi
8:53 AM67 °FSunny.6 mph51%29.94 "Hg10 mi
7:53 AM63 °FSunny.6 mph58%29.93 "Hg10 mi
6:53 AM58 °FSunny.6 mph70%29.92 "Hg10 mi
5:53 AM57 °FClear.7 mph72%29.90 "Hg10 mi
4:53 AM59 °FClear.6 mph67%29.90 "Hg10 mi
3:53 AM60 °FClear.7 mph65%29.90 "Hg10 mi
2:53 AM60 °FClear.5 mph69%29.91 "Hg10 mi
1:53 AM63 °FClear.3 mph63%29.91 "Hg10 mi
12:53 AM65 °FClear.N/A56%29.91 "Hg10 mi
Weather by CustomWeather, © 2015

See weather overviewHow to use our weather pages